Tracking 29892 objects as of 21-Nov-2024
HD Live streaming from Space Station
objects crossing your sky now

STARLINK-6247

Track STARLINK-6247 now!
10-day predictions
STARLINK-6247 is classified as:


NORAD ID: 57086
Int'l Code: 2023-088AQ
Perigee: 565.6 km
Apogee: 566.9 km
Inclination: 43.0 °
Period: 95.8 minutes
Semi major axis: 6937 km
RCS: Unknown
Launch date: June 22, 2023
Source: United States (US)
Launch site: AIR FORCE WESTERN TEST RANGE (AFWTR)
Your satellite tracking list
Your tracking list is empty




NASA's NSSDC Master Catalog

Two Line Element Set (TLE):
1 57086U 23088AQ  24325.87062757  .00000753  00000-0  70794-4 0  9991
2 57086  43.0008 149.1812 0000938 267.9605  92.1129 15.02537439 79249
Source of the keplerian elements: AFSPC